Flagstaff, AZ

2:25 AM MST on August 24, 2017 (GMT -0700)
Flagstaff Pulliam

Weather History for KFLG - February, 2012

Change the Weather History Date:

Monday, February 6, 2012

  Actual Average Record
Temperature  
Mean Temperature 30 °F 31 °F  
Max Temperature 46 °F 44 °F 65 °F (1963)
Min Temperature 14 °F 18 °F -21 °F (1899)
Degree Days  
Heating Degree Days 35 34  
Month to date heating degree days 214 204  
Since 1 July heating degree days 3950 4120  
Cooling Degree Days 0 0  
Month to date cooling degree days 0 0  
Year to date cooling degree days 0 0  
Moisture  
Dew Point 15 °F    
Average Humidity 56    
Maximum Humidity 88    
Minimum Humidity 24    
Precipitation  
Precipitation 0.00 in 0.07 in 1.59 in (1965)
Month to date precipitation 0.09 0.42  
Year to date precipitation 0.51 2.47  
Snow  
Snow 0.00 in 0.70 in 15.20 in (1965)
Month to date snowfall 2.0 4.7  
Since 1 July snowfall 52.2 57.0  
Snow Depth 0.00 in    
Sea Level Pressure  
Sea Level Pressure 30.08 in    
Wind  
Wind Speed 4 mph (ENE)    
Max Wind Speed 15 mph    
Max Gust Speed 20 mph    
Visibility 10 miles    
Events      
T = Trace of Precipitation, MM = Missing Value Source: NWS Daily Summary

Daily Weather History Graph

Daily Weather History Graph

Search for Another Location

Airport or City:

Trip Planner

Search our weather history database for the weather conditions in past years. The results will help you decide how hot, cold, wet, or windy it might be!

Date:

Astronomy

Feb. 06, 2012 Rise Set
Actual Time 7:22 AM MST 5:59 PM MST
Civil Twilight 6:55 AM MST 6:26 PM MST
Nautical Twilight 6:25 AM MST 6:56 PM MST
Astronomical Twilight 5:55 AM MST 7:26 PM MST
Moon 5:07 PM MST (2/6) 6:15 AM MST (2/6)
Length of Visible Light 11h 30m
Length of Day
10h 37m
Waxing Gibbous, 98% of the Moon is Illuminated
Feb 6
Waxing Gibbous
Feb 7
Full
Feb 14
Last Quarter
Feb 21
New
Feb 29
First Quarter

Hourly Weather History & Observations

Time (MST) Temp. Windchill Dew Point Humidity Pressure Visibility Wind Dir Wind Speed Gust Speed Precip Events Conditions
12:57 AM 21.9 °F - 17.1 °F 82% 30.07 in 10.0 mi Calm Calm - N/A   Clear
1:57 AM 19.0 °F - 16.0 °F 88% 30.08 in 10.0 mi Calm Calm - N/A   Clear
2:57 AM 18.0 °F - 14.0 °F 84% 30.07 in 10.0 mi Calm Calm - N/A   Clear
3:57 AM 17.1 °F - 14.0 °F 88% 30.06 in 10.0 mi Calm Calm - N/A   Clear
4:57 AM 16.0 °F - 12.0 °F 84% 30.07 in 10.0 mi Calm Calm - N/A   Clear
5:57 AM 15.1 °F - 12.0 °F 88% 30.10 in 10.0 mi Calm Calm - N/A   Clear
6:57 AM 14.0 °F - 10.0 °F 84% 30.13 in 10.0 mi Calm Calm - N/A   Clear
7:57 AM 16.0 °F - 12.9 °F 88% 30.15 in 10.0 mi Calm Calm - N/A   Clear
8:57 AM 25.0 °F - 19.9 °F 81% 30.11 in 10.0 mi Calm Calm - N/A   Clear
9:57 AM 33.1 °F - 25.0 °F 72% 30.07 in 10.0 mi Calm Calm - N/A   Clear
10:57 AM 36.0 °F - 23.0 °F 59% 30.06 in 10.0 mi Calm Calm - N/A   Clear
11:57 AM 41.0 °F 36.4 °F 19.0 °F 41% 30.03 in 10.0 mi SSW 6.9 mph - N/A   Clear
12:57 PM 43.0 °F 38.2 °F 10.0 °F 26% 30.01 in 10.0 mi NW 8.1 mph - N/A   Clear
1:57 PM 43.0 °F 40.3 °F 19.0 °F 38% 30.01 in 10.0 mi Variable 4.6 mph - N/A   Scattered Clouds
2:57 PM 46.0 °F 42.5 °F 19.0 °F 34% 30.00 in 10.0 mi Variable 6.9 mph 16.1 mph N/A   Scattered Clouds
3:57 PM 43.0 °F 37.7 °F 17.1 °F 35% 30.02 in 10.0 mi SW 9.2 mph 16.1 mph N/A   Mostly Cloudy
4:57 PM 42.1 °F 39.2 °F 8.1 °F 25% 30.05 in 10.0 mi NW 4.6 mph - N/A   Clear
5:57 PM 37.0 °F - 9.0 °F 31% 30.10 in 10.0 mi Calm Calm - N/A   Clear
6:57 PM 30.9 °F - 19.0 °F 61% 30.15 in 10.0 mi Calm Calm - N/A   Clear
7:57 PM 30.0 °F 22.4 °F 17.1 °F 59% 30.16 in 10.0 mi East 8.1 mph - N/A   Clear
8:57 PM 30.0 °F 20.5 °F 14.0 °F 51% 30.12 in 10.0 mi ENE 11.5 mph - N/A   Clear
9:57 PM 28.0 °F 19.3 °F 14.0 °F 56% 30.11 in 10.0 mi East 9.2 mph - N/A   Clear
10:57 PM 28.0 °F 20.0 °F 12.9 °F 53% 30.10 in 10.0 mi East 8.1 mph - N/A   Clear
11:57 PM 27.0 °F 18.0 °F 12.0 °F 53% 30.08 in 10.0 mi East 9.2 mph - N/A   Clear